Weather Roundup
Issued by NWS

Home | Current Version | Previous Version | Graphics & Text | Print | Product List | Glossary Off
Versions: 1 2 3 4 5 6 7 8 9 10 11 12 13 14 15 16 17 18 19 20 21 22 23 24 25 26 27 28 29 30 31 32 33 34 35 36 37 38 39 40 41 42 43 44 45 46 47 48 49 50

000
NZUS93 KARX 291559
HRRWXR

CURRENT HOURLY OBSERVATIONS ACROSS
MUCH OF THE UPPER MISSISSIPPI VALLEY
NATIONAL WEATHER SERVICE LA CROSSE WI
1100 AM CDT FRI MAY 29 2015


...SOUTHEAST MINNESOTA...


CITY           SKY/WX    TMP DP  RH WIND       PRES   REMARKS
ROCHESTER      CLOUDY    70  63  78 S15       29.92F
ROCHESTER/MAYO PTSUNNY   69  64  83 S9G16     29.91F
WINONA         CLOUDY    73  64  73 SW6       29.92S
AUSTIN         CLOUDY    70  64  83 S8        29.92S
ALBERT LEA     CLOUDY    70  64  83 S5        29.91F
DODGE CENTER   CLOUDY    68  63  83 S15       29.92R
PRESTON        CLOUDY    68  62  81 SW5       29.94F
OWATONNA       LGT RAIN  68  63  83 S9        29.90S
FARIBAULT      CLOUDY    68  64  88 CALM      29.90R
$$

...ELSEWHERE IN MINNESOTA...


CITY           SKY/WX    TMP DP  RH WIND       PRES   REMARKS
MINNEAPOLIS    CLOUDY    70  64  81 SW7       29.89S
INTNL FALLS    CLOUDY    50  47  89 NW14      29.98R
DULUTH         PTSUNNY   68  56  65 VRB6      29.88R
RED WING       CLOUDY    70  64  83 S5        29.89R
REDWOOD FALLS  LGT RAIN  66  63  90 N3        29.90S
MANKATO        CLOUDY    66  61  82 SW10      29.91R
WORTHINGTON    CLOUDY    64  63  94 S8        29.91F
FAIRMONT       CLOUDY    66  61  82 SW12      29.91R
$$

...SOUTHWEST WISCONSIN...


CITY           SKY/WX    TMP DP  RH WIND       PRES   REMARKS
LA CROSSE      CLOUDY    74  63  68 S10       29.92F
PRAIRIE DU CHI PTSUNNY   72  62  71 CALM      29.95F
BOSCOBEL       PTSUNNY   74  64  71 S5        29.95F
LONE ROCK      NOT AVBL
PLATTEVILLE    CLOUDY    72  68  86 S10       29.97F
FORT MC COY    PTSUNNY   71  61  70 S8        29.95S
VIROQUA        PTSUNNY   72  64  76 S8        29.96S
WIS DELLS      CLOUDY    70  64  79 S10       29.97S
$$

...ELSEWHERE IN WISCONSIN...


CITY           SKY/WX    TMP DP  RH WIND       PRES   REMARKS
MILWAUKEE      PTSUNNY   78  64  61 SW13      30.00F
MADISON        CLOUDY    73  64  73 S10       29.97F
GREEN BAY      LGT RAIN  70  63  78 SW8       29.98S
EAU CLAIRE     NOT AVBL
BLACK RVR FLS  PTSUNNY   74  62  65 S7        29.93S
MEDFORD        CLOUDY    65  62  88 SW10      29.94S
WAUSAU         CLOUDY    70  62  76 S12       29.93F
WIS RAPIDS     CLOUDY    71  62  73 SW15G21   29.96F
MARSHFIELD     PTSUNNY   70  62  76 SW13      29.95S
RICE LAKE      CLOUDY    65  62  88 SW3       29.92S
$$

...NORTHEAST IOWA...


CITY           SKY/WX    TMP DP  RH WIND       PRES   REMARKS
DECORAH        CLOUDY    72  63  73 S6G13     29.93F
MASON CITY     CLOUDY    69  65  86 S10       29.94S
CHARLES CITY   CLOUDY    73  66  78 SW9       29.95R
OELWEIN        PTSUNNY   73  64  73 S12       29.95F
$$

...ELSEWHERE IN IOWA...


CITY           SKY/WX    TMP DP  RH WIND       PRES   REMARKS
DES MOINES     CLOUDY    72  64  76 S8        29.94F
IOWA CITY      CLOUDY    74  67  78 S7        29.97R
FORT DODGE     CLOUDY    70  63  78 S10       29.94F
$$

...NORTHERN ILLINOIS...


CITY           SKY/WX    TMP DP  RH WIND       PRES   REMARKS
CHICAGO-OHARE  PTSUNNY   79  65  62 S15G22    30.01F
CHICAGO-MIDWAY PTSUNNY   82  65  56 S15       30.02F
MOLINE         CLOUDY    71  67  87 S7        29.97S FOG
ROCKFORD       CLOUDY    76  68  76 S12       30.01F
PEORIA         CLOUDY    77  66  68 S16       30.01S
$$

NOTE: "FAIR" INDICATES FEW OR NO CLOUDS BELOW 12,000 FEET WITH NO
SIGNIFICANT WEATHER AND/OR OBSTRUCTIONS TO VISIBILITY. WIND
SPEEDS ARE IN MILES-PER-HOUR.



USA.gov is the U.S. government's official web portal to all federal, state and local government web resources and services.